API VERSION: 1.2 API SOURCE: NASA/JPL Horizons API ******************************************************************************* Revised: Sep 25, 2024 2021N1 / (Neptune) 85052 https://ssd.jpl.nasa.gov/sats/elem/ Irregular Neptunian satellite Satellite Orbital Data (Epoch 2020-Jan-1 TDB; MEAN values wrt ecliptic plane): Semi-major axis, a (km) = 50700200. Sid. orbital period = 10036.651 d Eccentricity, e = 0.503 Inclination, i = 135.2 deg Mean anomaly, M (deg) = 237.1 Arg of periapse, w = 90.4 deg ******************************************************************************* ******************************************************************************* Ephemeris / API_USER Fri Dec 12 17:42:20 2025 Pasadena, USA / Horizons ******************************************************************************* Target body name: 2021N1 (85052) {source: nep104_merged} Center body name: Neptune (899) {source: nep104_merged} Center-site name: BODYCENTRIC ******************************************************************************* Start time : A.D. 2002-Nov-01 00:00:00.0000 UT Stop time : A.D. 2002-Dec-01 00:00:00.0000 UT Step-size : 1440 minutes ******************************************************************************* Target pole/equ : undefined Target radii : undefined Center geodetic : 0.0, 0.0, -24764.0 {W-lon(deg),Lat(deg),Alt(km)} Center cylindric: 0.0, 0.0, 0.0 {W-lon(deg),Dxy(km),Dz(km)} Center pole/equ : IAU_NEPTUNE {West-longitude positive} Center radii : 24764.0, 24764.0, 24341.0 km {Equator_a, b, pole_c} Target primary : Neptune Vis. interferer : TRITON (R_eq= 1352.600) km {source: nep097_merged} Rel. light bend : Sun {source: nep104_merged} Rel. lght bnd GM: 1.3271E+11 km^3/s^2 Atmos refraction: NO (AIRLESS) RA format : HMS Time format : CAL Calendar mode : Mixed Julian/Gregorian EOP file : eop.251212.p260310 EOP coverage : DATA-BASED 1962-JAN-20 TO 2025-DEC-12. PREDICTS-> 2026-MAR-09 Units conversion: 1 au= 149597870.700 km, c= 299792.458 km/s, 1 day= 86400.0 s Table cut-offs 1: Elevation (-90.0deg=NO ),Airmass n.a. , Daylight (NO ) Table cut-offs 2: Solar elongation ( 0.0,180.0=NO ),Local Hour Angle( 0.0=NO ) Table cut-offs 3: RA/DEC angular rate ( 0.0=NO ) ******************************************************************************* Date__(UT)__HR:MN delta deldot *************************************************** $$SOE 2002-Nov-01 00:00 0.51216048307419 0.0015334 2002-Nov-02 00:00 0.51216153644039 0.0019733 2002-Nov-03 00:00 0.51216257139968 0.0014619 2002-Nov-04 00:00 0.51216313109129 0.0004739 2002-Nov-05 00:00 0.51216322040719 -0.0000206 2002-Nov-06 00:00 0.51216330075991 0.0004367 2002-Nov-07 00:00 0.51216381126281 0.0013172 2002-Nov-08 00:00 0.51216471283100 0.0016537 2002-Nov-09 00:00 0.51216552889482 0.0010424 2002-Nov-10 00:00 0.51216583986184 0.0000638 2002-Nov-11 00:00 0.51216571886680 -0.0003211 2002-Nov-12 00:00 0.51216565570025 0.0002311 2002-Nov-13 00:00 0.51216604870519 0.0010915 2002-Nov-14 00:00 0.51216679117006 0.0013122 2002-Nov-15 00:00 0.51216738225361 0.0006086 2002-Nov-16 00:00 0.51216744650063 -0.0003432 2002-Nov-17 00:00 0.51216712375000 -0.0006080 2002-Nov-18 00:00 0.51216692374881 0.0000346 2002-Nov-19 00:00 0.51216719732049 0.0008632 2002-Nov-20 00:00 0.51216777213167 0.0009641 2002-Nov-21 00:00 0.51216813181068 0.0001764 2002-Nov-22 00:00 0.51216795163435 -0.0007383 2002-Nov-23 00:00 0.51216743587026 -0.0008852 2002-Nov-24 00:00 0.51216710550740 -0.0001673 2002-Nov-25 00:00 0.51216725765695 0.0006157 2002-Nov-26 00:00 0.51216765700049 0.0005985 2002-Nov-27 00:00 0.51216778018331 -0.0002548 2002-Nov-28 00:00 0.51216735878274 -0.0011130 2002-Nov-29 00:00 0.51216665817149 -0.0011394 2002-Nov-30 00:00 0.51216620199265 -0.0003619 2002-Dec-01 00:00 0.51216622883790 0.0003566 $$EOE ******************************************************************************* Column meaning: TIME Times PRIOR to 1962 are UT1, a mean-solar time closely related to the prior but now-deprecated GMT. Times AFTER 1962 are in UTC, the current civil or "wall-clock" time-scale. UTC is kept within 0.9 seconds of UT1 using integer leap-seconds for 1972 and later years. Conversion from the internal Barycentric Dynamical Time (TDB) of solar system dynamics to the non-uniform civil UT time-scale requested for output has not been determined for UTC times after the next July or January 1st. Therefore, the last known leap-second is used as a constant over future intervals. Time tags refer to the UT time-scale conversion from TDB on Earth regardless of observer location within the solar system, although clock rates may differ due to the local gravity field and no analog to "UT" may be defined for that location. Any 'b' symbol in the 1st-column denotes a B.C. date. First-column blank (" ") denotes an A.D. date. CALENDAR SYSTEM Mixed calendar mode was active such that calendar dates after AD 1582-Oct-15 (if any) are in the modern Gregorian system. Dates prior to 1582-Oct-5 (if any) are in the Julian calendar system, which is automatically extended for dates prior to its adoption on 45-Jan-1 BC. The Julian calendar is useful for matching historical dates. The Gregorian calendar more accurately corresponds to the Earth's orbital motion and seasons. A "Gregorian-only" calendar mode is available if such physical events are the primary interest. NOTE: "n.a." in output means quantity "not available" at the print-time. 'delta deldot' = Apparent range ("delta", light-time aberrated) and range-rate ("delta-dot") of the target center relative to the observer. A positive "deldot" means the target center is moving away from the observer, negative indicates movement toward the observer. Units: AU and KM/S Computations by ... Solar System Dynamics Group, Horizons On-Line Ephemeris System 4800 Oak Grove Drive, Jet Propulsion Laboratory Pasadena, CA 91109 USA General site: https://ssd.jpl.nasa.gov/ Mailing list: https://ssd.jpl.nasa.gov/email_list.html System news : https://ssd.jpl.nasa.gov/horizons/news.html User Guide : https://ssd.jpl.nasa.gov/horizons/manual.html Connect : browser https://ssd.jpl.nasa.gov/horizons/app.html#/x API https://ssd-api.jpl.nasa.gov/doc/horizons.html command-line telnet ssd.jpl.nasa.gov 6775 e-mail/batch https://ssd.jpl.nasa.gov/ftp/ssd/horizons_batch.txt scripts https://ssd.jpl.nasa.gov/ftp/ssd/SCRIPTS Author : Jon.D.Giorgini@jpl.nasa.gov *******************************************************************************